SBI1233 USSS-UWKD

Flight info

Callsign SBI1233
Flight time N/A
Altitude 36000
Route LUNAG6J LUNAG M864 AGNOK T796 ORTIM ORTIM1R
Aircraft B738/M-SDE2E3FGHIRWXY/LB1

Departure

Time 2026-04-27 18:23
Airport Koltsovo Airport (USSS)

Arrival

Time N/A
Airport Kazan International Airport (UWKD)
Time Latitude Longitude Altitude Speed Heading
2026-04-27 18:04 56.74790 60.80370 757 ft 0 kts
2026-04-27 18:14 56.74793 60.80370 757 ft 2 kts
2026-04-27 18:15 56.74831 60.80366 754 ft 9 kts 346°
2026-04-27 18:15 56.74855 60.80217 756 ft 17 kts 268°
2026-04-27 18:15 56.74854 60.79963 755 ft 23 kts 270°
2026-04-27 18:15 56.74854 60.79670 752 ft 23 kts 270°
2026-04-27 18:16 56.74853 60.79387 751 ft 22 kts 269°
2026-04-27 18:16 56.74854 60.79107 749 ft 22 kts 270°
2026-04-27 18:16 56.74856 60.78839 746 ft 21 kts 272°
2026-04-27 18:16 56.74858 60.78578 744 ft 20 kts 269°
2026-04-27 18:17 56.74856 60.78324 744 ft 20 kts 269°
2026-04-27 18:17 56.74792 60.78150 742 ft 19 kts 186°
2026-04-27 18:17 56.74670 60.78148 741 ft 15 kts 180°
2026-04-27 18:17 56.74590 60.78147 743 ft 9 kts 180°
2026-04-27 18:18 56.74525 60.78147 742 ft 11 kts 180°
2026-04-27 18:18 56.74422 60.78129 743 ft 18 kts 203°
2026-04-27 18:18 56.74343 60.78063 742 ft 5 kts 205°
2026-04-27 18:18 56.74329 60.78051 742 ft 0 kts 204°
2026-04-27 18:19 56.74328 60.78050 742 ft 0 kts 204°
2026-04-27 18:19 56.74325 60.78047 741 ft 1 kts 204°
2026-04-27 18:19 56.74279 60.78022 741 ft 13 kts 179°
2026-04-27 18:20 56.74221 60.78150 741 ft 14 kts 90°
2026-04-27 18:20 56.74221 60.78176 742 ft 0 kts 94°
2026-04-27 18:22 56.74217 60.78260 743 ft 29 kts 94°
2026-04-27 18:22 56.74184 60.79089 749 ft 100 kts 94°
2026-04-27 18:22 56.74120 60.80737 764 ft 158 kts 95°
2026-04-27 18:23 56.74040 60.82864 1268 ft 169 kts 96°
2026-04-27 18:23 56.74008 60.85009 2095 ft 171 kts 95°
2026-04-27 18:23 56.74004 60.87329 2464 ft 197 kts 95°
2026-04-27 18:23 56.74000 60.89882 3001 ft 211 kts 95°
2026-04-27 18:24 56.73975 60.92702 3276 ft 233 kts 95°
2026-04-27 18:24 56.73944 60.95760 3649 ft 249 kts 95°
2026-04-27 18:24 56.73911 60.99085 3902 ft 275 kts 95°
2026-04-27 18:24 56.73599 61.02507 4471 ft 279 kts 118°
2026-04-27 18:25 56.72420 61.05167 5318 ft 268 kts 149°
2026-04-27 18:25 56.70708 61.06466 6088 ft 264 kts 174°
2026-04-27 18:25 56.68933 61.06295 6985 ft 255 kts 198°
2026-04-27 18:25 56.67390 61.04825 7865 ft 253 kts 221°
2026-04-27 18:26 56.66328 61.02210 8455 ft 263 kts 247°
2026-04-27 18:26 56.65997 60.98904 9197 ft 270 kts 270°
2026-04-27 18:26 56.66372 60.95532 9962 ft 276 kts 285°
2026-04-27 18:26 56.66995 60.92170 10403 ft 289 kts 287°
2026-04-27 18:27 56.67685 60.88632 10566 ft 311 kts 287°
2026-04-27 18:27 56.68435 60.84795 10746 ft 332 kts 287°
2026-04-27 18:27 56.69215 60.80757 11167 ft 343 kts 287°
2026-04-27 18:27 56.70006 60.76624 11819 ft 346 kts 287°
2026-04-27 18:28 56.70793 60.72464 12543 ft 348 kts 286°
2026-04-27 18:28 56.71580 60.68280 13271 ft 351 kts 286°
2026-04-27 18:28 56.72370 60.64050 13922 ft 356 kts 286°
2026-04-27 18:28 56.73186 60.59660 14063 ft 375 kts 286°
2026-04-27 18:29 56.74040 60.55054 14227 ft 391 kts 286°
2026-04-27 18:29 56.74918 60.50309 14645 ft 398 kts 286°
2026-04-27 18:29 56.75743 60.45518 15223 ft 399 kts 282°
2026-04-27 18:29 56.76305 60.40560 15834 ft 400 kts 277°
2026-04-27 18:30 56.76762 60.35532 16396 ft 403 kts 277°
2026-04-27 18:30 56.77218 60.30453 16941 ft 407 kts 277°
2026-04-27 18:30 56.77707 60.25346 17473 ft 411 kts 277°
2026-04-27 18:30 56.78226 60.20186 18006 ft 414 kts 278°
2026-04-27 18:31 56.78754 60.15007 18481 ft 418 kts 278°
2026-04-27 18:31 56.79209 60.09754 18953 ft 419 kts 275°
2026-04-27 18:31 56.79547 60.04464 19456 ft 420 kts 273°
2026-04-27 18:31 56.79841 59.99166 19983 ft 421 kts 272°
2026-04-27 18:32 56.80126 59.93889 20452 ft 423 kts 272°
2026-04-27 18:32 56.80421 59.88524 20878 ft 426 kts 272°
2026-04-27 18:32 56.80727 59.83117 21320 ft 428 kts 272°
2026-04-27 18:32 56.81039 59.77699 21755 ft 430 kts 272°
2026-04-27 18:33 56.81356 59.72249 22163 ft 433 kts 272°
2026-04-27 18:33 56.81675 59.66764 22555 ft 435 kts 272°
2026-04-27 18:33 56.81995 59.61242 22950 ft 437 kts 272°
2026-04-27 18:33 56.82309 59.55780 23338 ft 439 kts 272°
2026-04-27 18:34 56.82626 59.50223 23702 ft 441 kts 272°
2026-04-27 18:34 56.82941 59.44646 24015 ft 443 kts 272°
2026-04-27 18:34 56.83255 59.39046 24322 ft 444 kts 272°
2026-04-27 18:34 56.83568 59.33416 24632 ft 446 kts 272°
2026-04-27 18:35 56.83878 59.27777 24923 ft 447 kts 271°
2026-04-27 18:35 56.84188 59.22107 25201 ft 449 kts 271°
2026-04-27 18:35 56.84498 59.16408 25489 ft 451 kts 271°
2026-04-27 18:35 56.84804 59.10713 25764 ft 452 kts 271°
2026-04-27 18:36 56.85097 59.04986 25991 ft 452 kts 270°
2026-04-27 18:36 56.85278 58.99227 26220 ft 453 kts 268°
2026-04-27 18:36 56.85380 58.93488 26513 ft 451 kts 267°
2026-04-27 18:36 56.85454 58.87775 26881 ft 449 kts 267°
2026-04-27 18:37 56.85523 58.82091 27241 ft 447 kts 267°
2026-04-27 18:37 56.85597 58.76416 27565 ft 446 kts 267°
2026-04-27 18:37 56.85676 58.70758 27874 ft 445 kts 267°
2026-04-27 18:37 56.85761 58.65104 28214 ft 444 kts 267°
2026-04-27 18:38 56.85847 58.59466 28555 ft 443 kts 267°
2026-04-27 18:38 56.85932 58.53917 28870 ft 442 kts 267°
2026-04-27 18:38 56.86016 58.48295 29209 ft 441 kts 267°
2026-04-27 18:38 56.86099 58.42685 29567 ft 440 kts 267°
2026-04-27 18:39 56.86177 58.37119 29914 ft 438 kts 267°
2026-04-27 18:39 56.86253 58.31555 30197 ft 438 kts 267°
2026-04-27 18:39 56.86327 58.25978 30477 ft 437 kts 266°
2026-04-27 18:39 56.86398 58.20435 30781 ft 435 kts 266°
2026-04-27 18:40 56.86466 58.14919 31053 ft 434 kts 266°
2026-04-27 18:40 56.86530 58.09479 31319 ft 433 kts 266°
2026-04-27 18:40 56.86593 58.03987 31596 ft 432 kts 266°
2026-04-27 18:40 56.86653 57.98502 31886 ft 430 kts 266°
2026-04-27 18:41 56.86710 57.93034 32194 ft 429 kts 266°
2026-04-27 18:41 56.86765 57.87589 32419 ft 430 kts 265°
2026-04-27 18:41 56.86817 57.82113 32643 ft 430 kts 265°
2026-04-27 18:41 56.86867 57.76659 32918 ft 428 kts 265°
2026-04-27 18:42 56.86916 57.71212 33195 ft 427 kts 265°
2026-04-27 18:42 56.86931 57.69454 33279 ft 426 kts 265°
2026-04-27 18:42 56.87004 57.60441 33670 ft 425 kts 265°
2026-04-27 18:42 56.87044 57.55046 33931 ft 424 kts 265°
2026-04-27 18:43 56.87082 57.49646 34130 ft 424 kts 264°
2026-04-27 18:43 56.87117 57.44239 34267 ft 425 kts 264°
2026-04-27 18:43 56.87150 57.38838 34409 ft 426 kts 264°
2026-04-27 18:43 56.87181 57.33423 34574 ft 425 kts 264°
2026-04-27 18:44 56.87210 57.28017 34713 ft 426 kts 264°
2026-04-27 18:44 56.87236 57.22596 34846 ft 427 kts 264°
2026-04-27 18:44 56.87259 57.17232 35007 ft 427 kts 264°
2026-04-27 18:44 56.87281 57.11733 35169 ft 427 kts 264°
2026-04-27 18:45 56.87301 57.06361 35300 ft 428 kts 264°
2026-04-27 18:45 56.87319 57.00914 35456 ft 428 kts 264°
2026-04-27 18:45 56.87334 56.95463 35599 ft 428 kts 264°
2026-04-27 18:45 56.87347 56.90014 35791 ft 428 kts 264°
2026-04-27 18:46 56.87363 56.79141 35853 ft 432 kts 263°
2026-04-27 18:46 56.87373 56.68165 35856 ft 432 kts 263°
2026-04-27 18:47 56.87374 56.57201 35857 ft 430 kts 263°
2026-04-27 18:47 56.87366 56.48090 35855 ft 431 kts 263°
2026-04-27 18:48 56.87407 56.37082 35841 ft 434 kts 264°
2026-04-27 18:48 56.87536 56.26006 35840 ft 436 kts 264°
2026-04-27 18:49 56.87650 56.14896 35824 ft 437 kts 264°
2026-04-27 18:49 56.87742 56.03833 35813 ft 438 kts 263°
2026-04-27 18:50 56.87591 55.92761 35789 ft 430 kts 255°
2026-04-27 18:50 56.86001 55.82414 35837 ft 418 kts 242°
2026-04-27 18:51 56.83708 55.72619 35837 ft 419 kts 241°
2026-04-27 18:51 56.81415 55.62810 35788 ft 420 kts 241°
2026-04-27 18:52 56.79134 55.52993 35773 ft 420 kts 241°
2026-04-27 18:53 56.75728 55.38353 35760 ft 419 kts 241°
2026-04-27 18:53 56.73437 55.28560 35809 ft 419 kts 240°
2026-04-27 18:54 56.71146 55.18811 35780 ft 418 kts 240°
2026-04-27 18:54 56.68853 55.09094 35768 ft 417 kts 240°
2026-04-27 18:55 56.66571 54.99470 35767 ft 416 kts 240°
2026-04-27 18:55 56.64268 54.89802 35758 ft 416 kts 240°
2026-04-27 18:56 56.61960 54.80157 35778 ft 415 kts 240°
2026-04-27 18:56 56.59643 54.70519 35785 ft 416 kts 239°
2026-04-27 18:57 56.57332 54.60945 35789 ft 417 kts 239°
2026-04-27 18:57 56.55260 54.51051 35781 ft 427 kts 249°
2026-04-27 18:58 56.53955 54.40542 35797 ft 427 kts 249°
2026-04-27 18:58 56.52603 54.30068 35793 ft 427 kts 249°
2026-04-27 18:59 56.51220 54.19588 35814 ft 429 kts 248°
2026-04-27 18:59 56.49819 54.09091 35802 ft 432 kts 248°
2026-04-27 19:00 56.48391 53.98466 35792 ft 436 kts 248°
2026-04-27 19:00 56.46945 53.87753 35788 ft 438 kts 248°
2026-04-27 19:01 56.45487 53.77028 35787 ft 439 kts 248°
2026-04-27 19:01 56.44019 53.66297 35769 ft 439 kts 248°
2026-04-27 19:02 56.42550 53.55644 35783 ft 440 kts 248°
2026-04-27 19:02 56.41059 53.44915 35769 ft 440 kts 248°
2026-04-27 19:03 56.39558 53.34192 35784 ft 441 kts 248°
2026-04-27 19:03 56.38042 53.23432 35760 ft 442 kts 248°
2026-04-27 19:04 56.36515 53.12664 35762 ft 442 kts 248°
2026-04-27 19:04 56.34983 53.01936 35790 ft 443 kts 248°
2026-04-27 19:05 56.33442 52.91227 35753 ft 443 kts 248°
2026-04-27 19:05 56.31887 52.80480 35746 ft 443 kts 248°
2026-04-27 19:06 56.30325 52.69762 35740 ft 442 kts 248°
2026-04-27 19:06 56.28753 52.59051 35734 ft 442 kts 248°
2026-04-27 19:07 56.27177 52.48380 35740 ft 441 kts 248°
2026-04-27 19:07 56.25601 52.37787 35732 ft 441 kts 248°
2026-04-27 19:08 56.24006 52.27137 35730 ft 441 kts 248°
2026-04-27 19:08 56.22404 52.16503 35730 ft 440 kts 248°
2026-04-27 19:09 56.20792 52.05875 35720 ft 440 kts 248°
2026-04-27 19:09 56.19182 51.95327 35717 ft 440 kts 248°
2026-04-27 19:10 56.17554 51.84734 35734 ft 440 kts 248°
2026-04-27 19:10 56.15916 51.74138 35724 ft 440 kts 248°
2026-04-27 19:11 56.14274 51.63586 35710 ft 439 kts 247°
2026-04-27 19:11 56.12628 51.53063 35621 ft 431 kts 247°
2026-04-27 19:11 56.11831 51.47958 35063 ft 421 kts 247°
2026-04-27 19:12 56.11041 51.42925 34218 ft 419 kts 246°
2026-04-27 19:12 56.10244 51.37900 33184 ft 419 kts 245°
2026-04-27 19:12 56.09450 51.32923 31996 ft 421 kts 245°
2026-04-27 19:12 56.08629 51.27797 30717 ft 424 kts 244°
2026-04-27 19:13 56.07813 51.22708 29408 ft 426 kts 244°
2026-04-27 19:13 56.07006 51.17677 27914 ft 425 kts 244°
2026-04-27 19:13 56.06191 51.12599 26398 ft 425 kts 243°
2026-04-27 19:13 56.05371 51.07498 24976 ft 423 kts 243°
2026-04-27 19:14 56.04563 51.02476 23762 ft 417 kts 242°
2026-04-27 19:14 56.03771 50.97542 22575 ft 408 kts 242°
2026-04-27 19:14 56.02994 50.92724 21294 ft 400 kts 243°
2026-04-27 19:14 56.02221 50.87970 20003 ft 395 kts 243°
2026-04-27 19:15 56.01455 50.83289 18737 ft 391 kts 243°
2026-04-27 19:15 56.00696 50.78664 17897 ft 379 kts 244°
2026-04-27 19:15 55.99977 50.74250 17367 ft 360 kts 245°
2026-04-27 19:15 55.99292 50.70062 16863 ft 343 kts 245°
2026-04-27 19:16 55.98636 50.66065 16456 ft 327 kts 245°
2026-04-27 19:16 55.98216 50.63520 16202 ft 317 kts 245°
2026-04-27 19:16 55.97403 50.58613 15714 ft 299 kts 245°
2026-04-27 19:16 55.96823 50.55131 15363 ft 288 kts 245°
2026-04-27 19:17 55.96261 50.51768 15024 ft 277 kts 245°
2026-04-27 19:17 55.95719 50.48544 14699 ft 272 kts 245°
2026-04-27 19:17 55.95180 50.45343 14375 ft 267 kts 245°
2026-04-27 19:17 55.94638 50.42145 14074 ft 272 kts 246°
2026-04-27 19:18 55.94066 50.38806 13757 ft 290 kts 246°
2026-04-27 19:18 55.93475 50.35335 13379 ft 292 kts 247°
2026-04-27 19:18 55.92898 50.31896 12975 ft 283 kts 247°
2026-04-27 19:18 55.92345 50.28593 12626 ft 273 kts 247°
2026-04-27 19:19 55.91810 50.25405 12316 ft 264 kts 247°
2026-04-27 19:19 55.91285 50.22294 11986 ft 261 kts 247°
2026-04-27 19:19 55.90760 50.19205 11726 ft 261 kts 247°
2026-04-27 19:19 55.90212 50.16017 11392 ft 277 kts 248°
2026-04-27 19:20 55.89640 50.12683 11025 ft 282 kts 248°
2026-04-27 19:20 55.89079 50.09386 10652 ft 274 kts 248°
2026-04-27 19:20 55.88536 50.06190 10304 ft 265 kts 248°
2026-04-27 19:20 55.88015 50.03129 10062 ft 258 kts 248°
2026-04-27 19:21 55.87496 50.00096 9957 ft 255 kts 248°
2026-04-27 19:21 55.86978 49.97082 9849 ft 255 kts 248°
2026-04-27 19:21 55.86458 49.94067 9735 ft 252 kts 248°
2026-04-27 19:21 55.85953 49.91130 9553 ft 247 kts 248°
2026-04-27 19:22 55.85449 49.88210 9271 ft 244 kts 248°
2026-04-27 19:22 55.84954 49.85347 8986 ft 241 kts 248°
2026-04-27 19:22 55.84461 49.82498 8724 ft 239 kts 248°
2026-04-27 19:22 55.83978 49.79716 8444 ft 237 kts 248°
2026-04-27 19:23 55.83493 49.76926 8179 ft 235 kts 248°
2026-04-27 19:23 55.83012 49.74159 7925 ft 233 kts 248°
2026-04-27 19:23 55.82533 49.71414 7657 ft 232 kts 248°
2026-04-27 19:23 55.82056 49.68681 7381 ft 230 kts 249°
2026-04-27 19:24 55.81584 49.65977 7123 ft 228 kts 249°
2026-04-27 19:24 55.81113 49.63288 6863 ft 226 kts 249°
2026-04-27 19:24 55.80646 49.60627 6624 ft 224 kts 249°
2026-04-27 19:24 55.80182 49.57983 6370 ft 224 kts 249°
2026-04-27 19:25 55.79723 49.55373 6107 ft 223 kts 249°
2026-04-27 19:25 55.79262 49.52753 5850 ft 221 kts 249°
2026-04-27 19:25 55.78805 49.50161 5595 ft 219 kts 249°
2026-04-27 19:25 55.78352 49.47590 5362 ft 217 kts 249°
2026-04-27 19:26 55.77904 49.45052 5130 ft 214 kts 248°
2026-04-27 19:26 55.77458 49.42533 4882 ft 212 kts 248°
2026-04-27 19:26 55.77017 49.40042 4674 ft 209 kts 248°
2026-04-27 19:26 55.76578 49.37573 4440 ft 211 kts 248°
2026-04-27 19:27 55.76133 49.35081 4225 ft 218 kts 248°
2026-04-27 19:27 55.75668 49.32469 4007 ft 222 kts 248°
2026-04-27 19:27 55.75207 49.29876 3773 ft 220 kts 248°
2026-04-27 19:27 55.74744 49.27282 3512 ft 220 kts 248°
2026-04-27 19:28 55.74283 49.24704 3257 ft 216 kts 248°
2026-04-27 19:28 55.73831 49.22167 3014 ft 214 kts 247°
2026-04-27 19:28 55.73395 49.19722 2928 ft 204 kts 247°
2026-04-27 19:28 55.72981 49.17401 2840 ft 190 kts 246°
2026-04-27 19:29 55.72595 49.15248 2735 ft 176 kts 246°
2026-04-27 19:29 55.72239 49.13262 2609 ft 163 kts 245°
2026-04-27 19:29 55.71909 49.11417 2499 ft 150 kts 245°
2026-04-27 19:29 55.71547 49.09683 2496 ft 153 kts 233°
2026-04-27 19:30 55.70833 49.08388 2438 ft 147 kts 212°
2026-04-27 19:30 55.69902 49.07796 2422 ft 142 kts 190°
2026-04-27 19:30 55.68920 49.08012 2412 ft 147 kts 167°
2026-04-27 19:30 55.68118 49.09257 2454 ft 163 kts 138°
2026-04-27 19:31 55.67360 49.10776 2407 ft 166 kts 143°
2026-04-27 19:31 55.66648 49.12394 2217 ft 161 kts 136°
2026-04-27 19:31 55.66047 49.13968 1961 ft 148 kts 136°
2026-04-27 19:31 55.65486 49.15426 1757 ft 139 kts 136°
2026-04-27 19:32 55.64945 49.16807 1613 ft 136 kts 137°
2026-04-27 19:32 55.64400 49.18220 1401 ft 139 kts 136°
2026-04-27 19:32 55.63842 49.19610 1215 ft 138 kts 134°
2026-04-27 19:32 55.63296 49.21033 1030 ft 140 kts 131°
2026-04-27 19:33 55.62757 49.22399 850 ft 136 kts 128°
2026-04-27 19:33 55.62570 49.22875 761 ft 140 kts 127°
2026-04-27 19:33 55.61656 49.25230 428 ft 140 kts 127°
2026-04-27 19:33 55.61145 49.26530 415 ft 104 kts 125°
2026-04-27 19:34 55.61070 49.26715 417 ft 92 kts 126°